* Astronomy

Members Login
Username 
 
Password 
    Remember Me  
Post Info TOPIC: Asteroid 2011 ET20


L

Posts: 131433
Date:
Asteroid 2011 ET20
Permalink  
 


Orbital elements:
2011 ET20 Earth MOID = 0.0713 AU
Epoch 2011 Feb. 8.0 TT = JDT 2455600.5 MPC
M 6.81728 (2000.0) P Q
n 0.45016292 Peri. 313.35789 -0.48573539 -0.87334175
a 1.6861242 Node 165.57443 +0.83840781 -0.47731596
e 0.4033858 Incl. 8.43476 +0.24725184 -0.09717850
P 2.19 H 25.0 G 0.15 U 8

MPEC 2011 - E45


__________________
Page 1 of 1  sorted by
 
Quick Reply

Please log in to post quick replies.



Create your own FREE Forum
Report Abuse
Powered by ActiveBoard